Flag for Poland Weather past 2 weeks in Chorzów, Poland

Now
55 °F

Clear.


Feels Like: 55 °F
Forecast: 63 / 90 °F
Wind: 2 mph from North

Location: Katowice Airport

Current Time: Aug 3, 2015 at 3:23:47 AM

Latest Report: Aug 3, 2015 at 3:00 AM


Visibility: 10 mi

Pressure: 30.12 "Hg

Humidity: 88%

Dew point: 52 °F

Location of ChorzówLocation

Historic Weather in Chorzów — Graph

°F

Chorzów temperature yesterday

Maximum temperature yesterday: 81 °F (at 1:30 PM)
Minimum temperature yesterday: 55 °F (at 4:30 AM)
Average temperature yesterday: 69 °F

Past Weeks' High & Low Weather Summary

 TemperatureHumidityPressure
High91 °F (Jul 25, 1:00 PM)100% (Jul 19, 2:00 AM)30.15 "Hg (Jul 19, 2:00 AM)
Low41 °F (Jul 31, 3:30 AM)24% (Aug 1, 2:00 PM)29.65 "Hg (Jul 27, 6:30 PM)
Average68 °F62%29.92 "Hg
* Reported Jul 19 2:00 AM — Aug 3 2:00 AM, Chorzów, Weather by CustomWeather, © 2015

Note: Actual official high and low records may vary slightly from our data, if they occured in-between our weather recording intervals... More about our weather records

Advertising

Chorzów weather history for previous 24 hours

 ConditionsComfort  
Time TempWeatherWind HumidityBarometerVisibility
2:00 AM
Mon, Aug 3
57 °FClear.2 mph88%30.12 "Hg10 mi
1:30 AM59 °FClear.2 mph82%30.12 "Hg10 mi
1:00 AM61 °FClear.2 mph77%30.15 "Hg10 mi
12:30 AM64 °FPassing clouds.3 mph68%30.15 "HgN/A
12:00 AM63 °FClear.1 mph73%30.15 "Hg10 mi
11:30 PM
Sun, Aug 2
64 °FClear.2 mph68%30.15 "Hg10 mi
11:00 PM66 °FClear.1 mph64%30.15 "Hg10 mi
10:30 PM68 °FPassing clouds.5 mph56%30.15 "HgN/A
10:00 PM70 °FClear.5 mph50%30.15 "Hg10 mi
9:30 PM68 °FPassing clouds.5 mph56%30.15 "HgN/A
9:00 PM68 °FSunny.1 mph60%30.15 "Hg10 mi
8:30 PM72 °FSunny.1 mph53%30.12 "Hg10 mi
8:00 PM75 °FPassing clouds.3 mph44%30.12 "HgN/A
7:30 PM73 °FSprinkles. Passing clouds.5 mph44%30.12 "HgN/A
7:00 PM77 °FPassing clouds.5 mph36%30.12 "HgN/A
6:30 PM77 °FSunny.6 mph32%30.12 "Hg10 mi
6:00 PM79 °FPassing clouds.7 mph30%30.12 "HgN/A
5:30 PM77 °FSunny.6 mph34%30.12 "Hg10 mi
5:00 PM79 °FPassing clouds.6 mph32%30.12 "HgN/A
4:30 PM79 °FPassing clouds.6 mph32%30.12 "HgN/A
4:00 PM79 °FPassing clouds.7 mph32%30.12 "HgN/A
3:30 PM77 °FPassing clouds.7 mph34%30.12 "HgN/A
3:00 PM77 °FSunny.6 mph32%30.12 "Hg10 mi
2:30 PM77 °FPassing clouds.8 mph34%30.12 "HgN/A
2:00 PM79 °FPassing clouds.7 mph32%30.12 "HgN/A
1:30 PM81 °FSunny.7 mph32%30.12 "Hg10 mi
1:00 PM79 °FPassing clouds.5 mph34%30.12 "HgN/A
12:30 PM77 °FPassing clouds.5 mph39%30.12 "HgN/A
12:00 PM77 °FSunny.3 mph39%30.12 "Hg10 mi
11:30 AM79 °FSunny.3 mph37%30.12 "Hg10 mi
11:00 AM77 °FSunny.3 mph36%30.12 "Hg10 mi
10:30 AM75 °FSunny.2 mph39%30.12 "Hg10 mi
10:00 AM73 °FSunny.1 mph47%30.12 "Hg10 mi
9:30 AM70 °FSunny.2 mph50%30.12 "Hg10 mi
9:00 AM66 °FPassing clouds.3 mph56%30.12 "HgN/A
8:30 AM63 °FSunny.2 mph64%30.12 "Hg10 mi
8:00 AM61 °FSunny.5 mph63%30.09 "Hg10 mi
7:30 AM61 °FSunny.5 mph63%30.09 "Hg10 mi
7:00 AM59 °FSunny.5 mph68%30.09 "Hg10 mi
6:30 AM59 °FSunny.5 mph68%30.09 "Hg10 mi
6:00 AM57 °FClear.5 mph72%30.09 "Hg10 mi
5:30 AM55 °FClear.3 mph72%30.09 "Hg10 mi
5:00 AM55 °FClear.2 mph72%30.09 "Hg10 mi
4:30 AM55 °FClear.2 mph72%30.09 "Hg10 mi
4:00 AM57 °FClear.3 mph67%30.09 "Hg10 mi
3:30 AM57 °FClear.3 mph67%30.09 "Hg10 mi
3:00 AM59 °FClear.7 mph63%30.09 "Hg10 mi
Weather by CustomWeather, © 2015

See weather overviewHow to use our weather pages